Location: PACMO
(41.3967°N, 90.3760°W)
Time: 02:09:29
(UTC-05:00)

Amateur Radio Satellites - All Passes

Search period start: 30 April 2016 01:39
Search period end: 01 May 2016 01:39
Location: PACMO, 41.3967°N, 90.3760°W

Satellite Date Start Highest point End Downlink Frequencies (MHz)
Time Altitude Azimuth
JAS-2 30 Apr 01:39:33 01:47:03 51° 98° (E) 01:54:36 435.910
NANOSAT C BR1 30 Apr 02:07:11 02:08:31 11° 298° (WNW) 02:09:52 145.865
AIST 1 30 Apr 02:07:22 02:10:57 25° 286° (WNW) 02:14:35
ITUPSAT 1 30 Apr 02:07:29 02:12:08 55° 72° (ENE) 02:16:48 437.325
Gurwin Techsat 1B 30 Apr 02:13:58 02:18:00 22° 93° (E) 02:22:00 435.225
TISAT 1 30 Apr 02:16:23 02:19:34 21° 266° (W) 02:22:47 437.305
SWISSCUBE 30 Apr 02:18:37 02:23:22 81° 75° (ENE) 02:28:08 437.505
BUGSAT 1 30 Apr 02:20:30 02:23:06 16° 296° (WNW) 02:25:42 437.445
CUSAT 1 30 Apr 02:23:47 02:30:34 54° 77° (ENE) 02:38:21 437.405
GONETS M04 30 Apr 02:35:03 02:43:14 41° 288° (WNW) 02:51:28
DANDE 30 Apr 02:36:33 02:42:11 35° 75° (ENE) 02:49:00 436.750
KKS-1 30 Apr 02:38:10 02:40:47 15° 63° (ENE) 02:43:24 437.445
Oscar 19 30 Apr 02:45:16 02:50:29 81° 286° (WNW) 02:55:41 437.125/150
PCSat 30 Apr 02:48:35 02:53:30 36° 249° (WSW) 02:58:23 145.827
BEESAT 30 Apr 02:52:25 02:57:03 51° 260° (W) 03:01:42 436.000
Cosmos 2499 30 Apr 02:59:22 03:06:03 43° 285° (WNW) 03:12:45 435.465 / 435.565
RS-15 30 Apr 03:00:23 03:09:15 23° 354° (N) 03:18:23 29.354- 29.394
STARS 30 Apr 03:03:50 03:06:22 15° 63° (ENE) 03:08:53 437.465
O/OREOS (USA 219) 30 Apr 03:18:29 03:19:02 10° 263° (W) 03:19:34 437.305
AO-7 30 Apr 03:23:56 03:29:25 19° 91° (E) 03:34:53 29.400- 29.500
JAS-2 30 Apr 03:24:53 03:31:47 38° 295° (WNW) 03:38:47 435.910
ITUPSAT 1 30 Apr 03:47:29 03:50:18 16° 268° (W) 03:53:08 437.325
MOZHAYETS 4 30 Apr 03:52:07 03:56:34 53° 73° (ENE) 04:01:02
Gurwin Techsat 1B 30 Apr 03:53:05 03:58:10 48° 290° (WNW) 04:03:15 435.225
BEESAT 3 30 Apr 03:53:57 03:57:38 35° 51° (NE) 04:01:17 437.485
BEESAT 2 30 Apr 03:55:13 03:58:30 24° 47° (NE) 04:01:45 435.950
ITAMSAT 1 30 Apr 03:56:35 04:01:48 81° 104° (ESE) 04:06:59 435.822/435.867
SWISSCUBE 30 Apr 04:01:14 04:01:44 10° 271° (W) 04:02:14 437.505
CUSAT 1 30 Apr 04:06:25 04:12:29 32° 270° (W) 04:19:14 437.405
KKS-1 30 Apr 04:12:30 04:16:53 55° 259° (W) 04:21:19 437.445
DANDE 30 Apr 04:19:05 04:25:02 45° 266° (W) 04:32:19 436.750
Oscar 19 30 Apr 04:27:35 04:28:56 11° 303° (WNW) 04:30:16 437.125/150
STARS 30 Apr 04:37:54 04:42:15 56° 259° (W) 04:46:39 437.465
AIST 2 30 Apr 05:01:52 05:03:28 12° 38° (NE) 05:05:03 435.215
YUBILEINY 30 Apr 05:05:11 05:11:20 21° 63° (ENE) 05:17:26 435.215
AO-7 30 Apr 05:14:46 05:23:09 88° 288° (WNW) 05:31:30 29.400- 29.500
RS-15 30 Apr 05:16:32 05:27:07 32° 29° (NNE) 05:37:47 29.354- 29.394
CUBESAT XI-V 30 Apr 05:28:25 05:32:56 60° 74° (ENE) 05:37:29 437.345
HORYU 2 30 Apr 05:30:49 05:35:09 51° 100° (E) 05:39:26 437.375
MOZHAYETS 4 30 Apr 05:31:28 05:34:03 15° 269° (W) 05:36:40
BEESAT 3 30 Apr 05:32:11 05:35:06 20° 248° (WSW) 05:38:01 437.485
BEESAT 2 30 Apr 05:32:48 05:36:24 33° 245° (WSW) 05:39:59 435.950
ITAMSAT 1 30 Apr 05:38:01 05:40:34 14° 301° (WNW) 05:43:08 435.822/435.867
Cosmos 2491 30 Apr 05:49:54 05:55:15 18° 77° (ENE) 06:00:35 435.465 / 435.565
NOAA 15 30 Apr 05:55:56 05:59:23 17° 92° (E) 06:02:48 137.62
BRITE-PL 30 Apr 06:07:49 06:11:25 17° 89° (E) 06:14:59 437.365/2234.400
NOAA 18 30 Apr 06:28:28 06:33:15 30° 96° (E) 06:37:59 137.9125
AIST 2 30 Apr 06:38:28 06:42:38 83° 58° (ENE) 06:46:46 435.215
Cosmos 2504 30 Apr 06:41:55 06:47:07 20° 66° (ENE) 06:52:30 435.465 / 435.565
CUTE-I 30 Apr 06:41:59 06:46:40 31° 96° (E) 06:51:19 437.470
YUBILEINY 30 Apr 07:00:33 07:09:17 86° 264° (W) 07:18:00 435.215
LilacSat-2 30 Apr 07:07:49 07:11:33 50° 99° (E) 07:15:14 437.200
STRAND 1 30 Apr 07:08:21 07:13:21 61° 73° (ENE) 07:18:24 437.568
CUBESAT XI-V 30 Apr 07:08:32 07:10:43 13° 270° (W) 07:12:55 437.345
HORYU 2 30 Apr 07:08:35 07:11:17 16° 297° (WNW) 07:13:58 437.375
AO-7 30 Apr 07:09:01 07:14:49 22° 309° (NW) 07:20:39 29.400- 29.500
SO-50 30 Apr 07:16:58 07:20:41 22° 111° (ESE) 07:24:24 436.795
Cubesat XI-IV 30 Apr 07:24:57 07:30:18 76° 103° (ESE) 07:35:37 437.490
RS-15 30 Apr 07:29:24 07:41:46 82° 57° (ENE) 07:54:06 29.354- 29.394
NOAA 15 30 Apr 07:34:18 07:39:32 60° 288° (WNW) 07:44:45 137.62
GOMX 1 30 Apr 07:34:18 07:39:40 51° 98° (E) 07:44:48 467.674
Cosmos 2491 30 Apr 07:41:55 07:50:45 90° 99° (E) 07:59:40 435.465 / 435.565
BRITE-PL 30 Apr 07:44:40 07:50:20 70° 286° (WNW) 07:55:57 437.365/2234.400
DOVE 4 30 Apr 07:46:11 07:50:50 32° 95° (E) 07:55:15 437.250
CANX-2 30 Apr 08:05:26 08:07:49 15° 91° (E) 08:10:13 2200.000
NOAA 18 30 Apr 08:08:58 08:13:56 36° 293° (WNW) 08:18:51 137.9125
M-CUBED/EXP-1 PRIME 30 Apr 08:11:54 08:15:59 79° 107° (ESE) 08:19:41 437.505
PRISM 30 Apr 08:14:16 08:18:15 58° 74° (ENE) 08:22:17 437.425
CUTE-I 30 Apr 08:21:56 08:26:42 34° 293° (WNW) 08:31:27 437.470
AUBIESAT-1 30 Apr 08:33:19 08:37:19 70° 290° (WNW) 08:40:58 437.475
Cosmos 2504 30 Apr 08:33:44 08:41:16 81° 264° (W) 08:49:20 435.465 / 435.565
CUTE 1.7 + AOD 2 30 Apr 08:37:45 08:41:27 29° 96° (E) 08:45:10 437.475
LilacSat-2 30 Apr 08:43:56 08:45:24 12° 296° (WNW) 08:46:52 437.200
STRAND 1 30 Apr 08:49:56 08:52:57 16° 269° (W) 08:55:59 437.568
CINEMA 3 30 Apr 08:51:39 08:56:10 45° 98° (E) 09:00:28 145.822/145.860
ISS 30 Apr 08:53:30 08:56:45 78° 144° (SE) 09:00:02 145.825
HO-68 30 Apr 08:54:35 09:01:32 51° 101° (E) 09:08:26 435.675
SO-50 30 Apr 08:56:04 09:00:50 50° 308° (NW) 09:05:38 436.795
YUBILEINY 30 Apr 08:59:52 09:04:41 16° 284° (WNW) 09:09:31 435.215
Cubesat XI-IV 30 Apr 09:06:45 09:09:43 15° 300° (WNW) 09:12:40 437.490
SEEDS 30 Apr 09:10:12 09:14:17 50° 99° (E) 09:18:21 437.485
GOMX 1 30 Apr 09:13:07 09:17:19 23° 296° (WNW) 09:21:24 467.674
COMPASS 1 30 Apr 09:19:09 09:23:09 45° 99° (E) 09:27:08 437.405
DOVE 4 30 Apr 09:23:54 09:28:25 31° 292° (WNW) 09:32:44 437.250
UNISAT 6 30 Apr 09:24:35 09:27:31 17° 64° (ENE) 09:30:27 437.425
BRITE-PL 30 Apr 09:26:24 09:27:46 11° 303° (WNW) 09:29:08 437.365/2234.400
CANX-2 30 Apr 09:39:53 09:43:55 46° 287° (WNW) 09:47:57 2200.000
TIGRISAT 30 Apr 09:42:17 09:45:58 24° 67° (ENE) 09:49:38 435.000
Cosmos 2491 30 Apr 09:42:51 09:48:52 20° 298° (WNW) 09:54:57 435.465 / 435.565
RS-15 30 Apr 09:43:13 09:52:57 29° 258° (WSW) 10:02:41 29.354- 29.394
Oscar 11 30 Apr 09:47:15 09:51:04 30° 96° (E) 09:54:51 145.826/435.025
PRISM 30 Apr 09:52:49 09:53:57 11° 269° (W) 09:55:05 437.425
AAUSAT CUBESAT 2 30 Apr 09:52:51 09:57:00 89° 284° (WNW) 10:01:09 437.432
FUNcube-1 30 Apr 09:54:41 09:58:22 29° 96° (E) 10:02:00 145.935
DELFI C3 30 Apr 09:56:26 09:59:09 18° 93° (E) 10:01:52 145.870
UWE-3 30 Apr 09:57:37 10:01:49 51° 99° (E) 10:05:53 435.000/436.395/437.385
CUBEBUG 2 30 Apr 09:58:46 10:03:10 77° 103° (ESE) 10:07:23 437.445
ANTELSAT 30 Apr 10:05:12 10:09:36 41° 71° (ENE) 10:13:56 437.575/2403.000
CUTE 1.7 + AOD 2 30 Apr 10:13:49 10:17:10 23° 292° (WNW) 10:20:30 437.475
HUMSAT D 30 Apr 10:28:44 10:31:35 18° 93° (E) 10:34:25 437.325/437.525
CINEMA 3 30 Apr 10:29:39 10:32:55 19° 296° (WNW) 10:36:06 145.822/145.860
Cosmos 2504 30 Apr 10:30:11 10:33:29 13° 282° (WNW) 10:36:53 435.465 / 435.565
ISS 30 Apr 10:30:57 10:33:32 21° 341° (NNW) 10:36:08 145.825
ZACube-1 30 Apr 10:34:58 10:39:13 89° 275° (W) 10:43:22 437.345
QB50P2 30 Apr 10:36:51 10:39:51 19° 66° (ENE) 10:42:52 145.880/145.840
POLYITAN 1 30 Apr 10:38:55 10:41:57 19° 66° (ENE) 10:45:01 437.675
DUCHIFAT 1 30 Apr 10:40:45 10:43:38 18° 65° (ENE) 10:46:30 145.980
SO-50 30 Apr 10:41:24 10:42:30 11° 328° (NNW) 10:43:35 436.795
POPSAT HIP 1 30 Apr 10:42:13 10:45:20 20° 66° (ENE) 10:48:30 437.405
HO-68 30 Apr 10:42:48 10:48:57 32° 298° (WNW) 10:55:05 435.675
QB50P1 30 Apr 10:45:33 10:48:51 22° 67° (ENE) 10:52:09 145.935-145.965
SEEDS 30 Apr 10:47:18 10:49:34 14° 296° (WNW) 10:51:50 437.485
GONETS M04 30 Apr 10:48:49 10:55:18 22° 64° (ENE) 11:01:42
COMPASS 1 30 Apr 10:55:53 10:58:21 16° 295° (WNW) 11:00:50 437.405
Cosmos 2499 30 Apr 10:59:01 11:01:06 11° 59° (ENE) 11:03:13 435.465 / 435.565
UNISAT 6 30 Apr 10:59:15 11:03:49 53° 260° (W) 11:08:22 437.425
PHONESAT 2.4 30 Apr 11:00:26 11:02:35 17° 151° (SSE) 11:04:44 2401.200-2431.200
TIGRISAT 30 Apr 11:18:09 11:22:28 36° 263° (W) 11:26:43 435.000
NANOSAT C BR1 30 Apr 11:21:02 11:25:10 50° 73° (ENE) 11:29:19 145.865
Oscar 11 30 Apr 11:23:36 11:27:03 24° 292° (WNW) 11:30:28 145.826/435.025
ESTCUBE 1 30 Apr 11:24:14 11:26:58 16° 92° (E) 11:29:41 437.505/2401.250
DELFI C3 30 Apr 11:30:31 11:34:07 34° 289° (WNW) 11:37:44 145.870
FUNcube-1 30 Apr 11:31:09 11:34:29 23° 293° (WNW) 11:37:47 145.935
BUGSAT 1 30 Apr 11:33:44 11:37:30 32° 69° (ENE) 11:41:17 437.445
UWE-3 30 Apr 11:35:27 11:37:49 15° 297° (WNW) 11:40:10 435.000/436.395/437.385
CUBEBUG 2 30 Apr 11:38:20 11:39:05 10° 300° (WNW) 11:39:51 437.445
ANTELSAT 30 Apr 11:43:02 11:46:26 20° 267° (W) 11:49:50 437.575/2403.000
JAS-2 30 Apr 11:53:51 11:58:06 20° 57° (ENE) 12:02:41 435.910
50 SAT 30 Apr 11:58:45 12:01:53 27° 96° (E) 12:05:02 437.505
CUBEBUG 1 30 Apr 12:01:31 12:05:19 27° 96° (E) 12:09:05 437.445
HUMSAT D 30 Apr 12:03:36 12:07:20 34° 289° (WNW) 12:11:01 437.325/437.525
ISS 30 Apr 12:09:08 12:10:55 14° 1° (N) 12:12:41 145.825
QB50P2 30 Apr 12:11:20 12:15:22 39° 262° (W) 12:19:25 145.880/145.840
AIST 1 30 Apr 12:13:14 12:17:40 77° 82° (E) 12:22:03
POLYITAN 1 30 Apr 12:13:28 12:17:29 39° 262° (W) 12:21:32 437.675
DUCHIFAT 1 30 Apr 12:14:58 12:19:00 41° 261° (W) 12:23:04 145.980
POPSAT HIP 1 30 Apr 12:16:55 12:20:53 36° 262° (W) 12:24:53 437.405
QB50P1 30 Apr 12:20:34 12:24:26 33° 263° (W) 12:28:20 145.935-145.965
VELOX 1 30 Apr 12:20:51 12:25:09 44° 99° (E) 12:29:24 145.980
Oscar 19 30 Apr 12:24:49 12:28:25 19° 63° (ENE) 12:32:02 437.125/150
DX 1 30 Apr 12:27:40 12:31:55 46° 100° (E) 12:36:07 434.975-435.025
PHONESAT 2.4 30 Apr 12:35:59 12:39:05 54° 167° (SSE) 12:42:11 2401.200-2431.200
AO-85 30 Apr 12:37:43 12:41:37 20° 109° (ESE) 12:45:31 145.980
UKube-1 30 Apr 12:39:24 12:43:39 51° 100° (E) 12:47:51 .
GONETS M04 30 Apr 12:44:23 12:53:11 81° 265° (W) 13:01:52
Cosmos 2499 30 Apr 12:48:08 12:55:44 64° 80° (E) 13:03:53 435.465 / 435.565
AISAT 30 Apr 12:52:26 12:56:56 79° 283° (WNW) 13:01:23 437.250
NANOSAT C BR1 30 Apr 12:58:55 13:01:11 14° 269° (W) 13:03:27 145.865
ESTCUBE 1 30 Apr 12:59:39 13:04:02 50° 288° (WNW) 13:08:25 437.505/2401.250
BUGSAT 1 30 Apr 13:09:38 13:12:54 22° 266° (W) 13:16:12 437.445
SPROUT 30 Apr 13:14:30 13:18:48 66° 101° (ESE) 13:23:03 437.525
50 SAT 30 Apr 13:32:54 13:35:32 19° 292° (WNW) 13:38:10 437.505
Gurwin Techsat 1B 30 Apr 13:34:53 13:39:39 35° 68° (ENE) 13:44:26 435.225
JAS-2 30 Apr 13:36:33 13:42:19 70° 258° (WSW) 13:48:57 435.910
CUBEBUG 1 30 Apr 13:37:45 13:41:32 28° 292° (WNW) 13:45:18 437.445
ITAMSAT 1 30 Apr 13:37:47 13:40:56 16° 61° (ENE) 13:44:05 435.822/435.867
ISS 30 Apr 13:45:31 13:48:15 24° 21° (NNE) 13:50:59 145.825
VELOX 1 30 Apr 13:58:12 14:01:16 18° 295° (WNW) 14:04:20 145.980
TISAT 1 30 Apr 13:58:58 14:03:10 60° 101° (E) 14:07:19 437.305
Oscar 19 30 Apr 14:02:14 14:07:17 55° 260° (W) 14:12:24 437.125/150
DX 1 30 Apr 14:04:52 14:07:44 17° 296° (WNW) 14:10:35 434.975-435.025
ITUPSAT 1 30 Apr 14:09:28 14:11:56 14° 91° (E) 14:14:23 437.325
PHONESAT 2.4 30 Apr 14:12:43 14:15:53 75° 183° (S) 14:19:02 2401.200-2431.200
AO-85 30 Apr 14:16:17 14:21:42 63° 305° (NW) 14:27:05 145.980
UKube-1 30 Apr 14:16:42 14:19:16 16° 297° (WNW) 14:21:50 .
SWISSCUBE 30 Apr 14:19:32 14:23:04 20° 94° (E) 14:26:34 437.505
AO-7 30 Apr 14:22:57 14:29:45 30° 56° (NE) 14:36:33 29.400- 29.500
Cosmos 2499 30 Apr 14:42:19 14:48:16 25° 276° (W) 14:54:33 435.465 / 435.565
GONETS M04 30 Apr 14:44:03 14:48:28 15° 285° (WNW) 14:52:53
BEESAT 30 Apr 14:52:23 14:56:51 39° 99° (E) 15:01:17 436.000
SPROUT 30 Apr 14:52:30 14:54:12 12° 298° (WNW) 14:55:54 437.525
ITAMSAT 1 30 Apr 15:14:41 15:19:50 67° 258° (WSW) 15:25:01 435.822/435.867
Gurwin Techsat 1B 30 Apr 15:14:59 15:19:35 30° 264° (W) 15:24:14 435.225
ISS 30 Apr 15:21:42 15:24:55 58° 219° (SW) 15:28:07 145.825
CUSAT 1 30 Apr 15:29:57 15:32:53 32° 90° (E) 15:36:33 437.405
TISAT 1 30 Apr 15:36:24 15:38:18 13° 298° (WNW) 15:40:13 437.305
ITUPSAT 1 30 Apr 15:45:27 15:50:10 62° 287° (WNW) 15:54:52 437.325
PCSat 30 Apr 15:47:19 15:51:55 29° 109° (ESE) 15:56:31 145.827
SO-50 30 Apr 15:47:42 15:51:27 22° 43° (NE) 15:55:07 436.795
O/OREOS (USA 219) 30 Apr 15:47:44 15:52:21 86° 104° (ESE) 15:56:58 437.305
MOZHAYETS 4 30 Apr 15:48:58 15:50:50 12° 90° (E) 15:52:43
PHONESAT 2.4 30 Apr 15:49:40 15:52:35 34° 200° (SSW) 15:55:31 2401.200-2431.200
DANDE 30 Apr 15:49:58 15:51:41 15° 87° (E) 15:53:35 436.750
SWISSCUBE 30 Apr 15:56:32 16:01:01 42° 290° (WNW) 16:05:30 437.505
AO-85 30 Apr 16:00:23 16:03:14 14° 325° (NW) 16:06:04 145.980
KKS-1 30 Apr 16:03:40 16:07:31 27° 96° (E) 16:11:19 437.445
AO-7 30 Apr 16:13:41 16:21:54 68° 255° (WSW) 16:30:12 29.400- 29.500
STARS 30 Apr 16:27:39 16:31:20 25° 95° (E) 16:34:58 437.465
HORYU 2 30 Apr 16:28:40 16:32:58 48° 72° (ENE) 16:37:16 437.375
BEESAT 30 Apr 16:30:42 16:34:24 23° 295° (WNW) 16:38:04 436.000
Cubesat XI-IV 30 Apr 17:09:34 17:12:56 17° 61° (ENE) 17:16:18 437.490
CUSAT 1 30 Apr 17:13:41 17:15:27 13° 299° (WNW) 17:17:27 437.405
NOAA 15 30 Apr 17:15:44 17:20:10 29° 66° (ENE) 17:24:39 137.62
BRITE-PL 30 Apr 17:19:15 17:22:17 17° 61° (ENE) 17:25:27 437.365/2234.400
MOZHAYETS 4 30 Apr 17:23:54 17:28:26 64° 286° (WNW) 17:32:56
M-CUBED/EXP-1 PRIME 30 Apr 17:25:50 17:28:03 13° 56° (ENE) 17:30:15 437.505
CUBESAT XI-V 30 Apr 17:26:08 17:28:53 15° 91° (E) 17:31:39 437.345
SO-50 30 Apr 17:27:40 17:32:15 52° 242° (WSW) 17:36:40 436.795
PCSat 30 Apr 17:30:00 17:35:07 41° 306° (NW) 17:40:16 145.827
O/OREOS (USA 219) 30 Apr 17:30:41 17:32:24 12° 310° (NW) 17:34:08 437.305
DANDE 30 Apr 17:32:39 17:34:25 15° 293° (WNW) 17:36:24 436.750
KKS-1 30 Apr 17:40:12 17:44:01 28° 292° (WNW) 17:47:49 437.445
AUBIESAT-1 30 Apr 17:45:56 17:48:54 17° 59° (ENE) 17:51:51 437.475
LilacSat-2 30 Apr 17:50:05 17:53:20 26° 70° (ENE) 17:56:35 437.200
Cosmos 2491 30 Apr 17:52:31 18:00:57 46° 74° (ENE) 18:09:15 435.465 / 435.565
NOAA 18 30 Apr 17:54:36 18:00:01 59° 71° (ENE) 18:05:26 137.9125
CUTE-I 30 Apr 18:03:45 18:08:52 51° 71° (ENE) 18:14:01 437.470
STARS 30 Apr 18:03:50 18:07:40 29° 292° (WNW) 18:11:27 437.465
HORYU 2 30 Apr 18:06:59 18:09:46 16° 267° (W) 18:12:33 437.375
YUBILEINY 30 Apr 18:07:36 18:13:53 23° 80° (E) 18:20:09 435.215
AO-7 30 Apr 18:13:50 18:16:08 11° 274° (W) 18:18:26 29.400- 29.500
GOMX 1 30 Apr 18:41:56 18:46:43 51° 72° (ENE) 18:51:49 467.674
Cubesat XI-IV 30 Apr 18:47:08 18:52:27 67° 258° (WSW) 18:57:46 437.490
DOVE 4 30 Apr 18:51:05 18:55:34 33° 68° (ENE) 19:00:15 437.250
NOAA 15 30 Apr 18:54:58 18:59:48 37° 262° (W) 19:04:41 137.62
BRITE-PL 30 Apr 18:55:30 19:00:09 60° 261° (W) 19:05:14 437.365/2234.400
M-CUBED/EXP-1 PRIME 30 Apr 18:57:13 19:01:57 82° 253° (WSW) 19:06:41 437.505
CANX-2 30 Apr 18:59:39 19:01:06 12° 63° (ENE) 19:02:33 2200.000
CUBESAT XI-V 30 Apr 19:02:00 19:06:36 54° 287° (WNW) 19:11:10 437.345
AUBIESAT-1 30 Apr 19:18:19 19:22:55 60° 254° (WSW) 19:27:30 437.475
STRAND 1 30 Apr 19:19:35 19:23:20 20° 93° (E) 19:27:06 437.568
BEESAT 3 30 Apr 19:21:49 19:25:43 63° 120° (ESE) 19:29:38 437.485
HO-68 30 Apr 19:23:20 19:29:50 39° 64° (ENE) 19:36:19 435.675
Cosmos 2504 30 Apr 19:24:18 19:27:26 13° 78° (ENE) 19:30:33 435.465 / 435.565
BEESAT 2 30 Apr 19:24:30 19:28:13 38° 116° (ESE) 19:31:56 435.950
LilacSat-2 30 Apr 19:24:32 19:27:36 22° 265° (W) 19:30:41 437.200
CUTE 1.7 + AOD 2 30 Apr 19:30:52 19:34:07 22° 68° (ENE) 19:37:23 437.475
NOAA 18 30 Apr 19:37:15 19:41:02 19° 267° (W) 19:44:50 137.9125
CUTE-I 30 Apr 19:45:18 19:49:11 20° 267° (W) 19:53:06 437.470
Cosmos 2491 30 Apr 19:49:39 19:57:37 40° 274° (W) 20:05:31 435.465 / 435.565
CINEMA 3 30 Apr 19:52:26 19:57:09 44° 71° (ENE) 20:01:55 145.822/145.860
YUBILEINY 30 Apr 20:00:58 20:09:43 75° 279° (W) 20:18:28 435.215
SEEDS 30 Apr 20:02:00 20:05:47 35° 71° (ENE) 20:09:35 437.485
COMPASS 1 30 Apr 20:10:06 20:13:43 30° 70° (ENE) 20:17:22 437.405
GOMX 1 30 Apr 20:21:40 20:25:09 19° 270° (W) 20:28:48 467.674
DOVE 4 30 Apr 20:28:47 20:33:13 30° 266° (W) 20:37:49 437.250
CANX-2 30 Apr 20:32:12 20:36:24 66° 259° (W) 20:40:37 2200.000
AIST 2 30 Apr 20:37:24 20:40:02 17° 110° (ESE) 20:42:40 435.215
Oscar 11 30 Apr 20:42:16 20:45:46 24° 68° (ENE) 20:49:15 145.826/435.025
AAUSAT CUBESAT 2 30 Apr 20:42:53 20:46:55 58° 74° (ENE) 20:50:59 437.432
DELFI C3 30 Apr 20:44:20 20:45:33 11° 63° (ENE) 20:46:46 145.870
FUNcube-1 30 Apr 20:50:07 20:53:50 26° 68° (ENE) 20:57:30 145.935
UWE-3 30 Apr 20:54:03 20:58:28 43° 72° (ENE) 21:02:48 435.000/436.395/437.385
CUBEBUG 2 30 Apr 20:56:03 21:00:45 65° 75° (ENE) 21:05:25 437.445
STRAND 1 30 Apr 20:57:51 21:02:44 47° 290° (WNW) 21:07:38 437.568
BEESAT 3 30 Apr 21:01:28 21:03:49 15° 318° (NW) 21:06:11 437.485
BEESAT 2 30 Apr 21:03:04 21:06:11 21° 314° (NW) 21:09:20 435.950
CUTE 1.7 + AOD 2 30 Apr 21:06:02 21:09:48 31° 264° (W) 21:13:34 437.475
AO-85 30 Apr 21:09:05 21:12:33 19° 39° (NE) 21:15:49 145.980
HO-68 30 Apr 21:10:46 21:17:27 42° 261° (W) 21:24:11 435.675
Cosmos 2504 30 Apr 21:12:18 21:19:39 87° 96° (E) 21:26:51 435.465 / 435.565
HUMSAT D 30 Apr 21:20:53 21:23:11 14° 64° (ENE) 21:25:29 437.325/437.525
ZACube-1 30 Apr 21:30:05 21:34:38 71° 75° (ENE) 21:39:07 437.345
CINEMA 3 30 Apr 21:30:36 21:34:26 22° 268° (W) 21:38:19 145.822/145.860
PRISM 30 Apr 21:30:46 21:34:57 85° 284° (WNW) 21:39:07 437.425
SEEDS 30 Apr 21:38:36 21:41:35 19° 267° (W) 21:44:35 437.485
COMPASS 1 30 Apr 21:46:09 21:49:20 21° 266° (W) 21:52:30 437.405
RS-15 30 Apr 21:52:34 22:03:15 53° 111° (ESE) 22:14:29 29.354- 29.394
YUBILEINY 30 Apr 22:03:28 22:08:10 15° 301° (WNW) 22:12:54 435.215
AIST 2 30 Apr 22:14:09 22:18:09 47° 307° (NW) 22:22:10 435.215
DELFI C3 30 Apr 22:16:02 22:19:55 59° 259° (W) 22:23:50 145.870
Oscar 11 30 Apr 22:17:59 22:21:46 29° 264° (W) 22:25:34 145.826/435.025
AAUSAT CUBESAT 2 30 Apr 22:21:36 22:22:47 11° 270° (W) 22:23:58 437.432
ESTCUBE 1 30 Apr 22:24:22 22:26:59 15° 63° (ENE) 22:29:36 437.505/2401.250
FUNcube-1 30 Apr 22:25:55 22:29:56 31° 264° (W) 22:33:56 145.935
UWE-3 30 Apr 22:31:47 22:35:05 19° 267° (W) 22:38:21 435.000/436.395/437.385
CUBEBUG 2 30 Apr 22:35:31 22:37:45 13° 270° (W) 22:40:00 437.445
50 SAT 30 Apr 22:38:47 22:40:43 14° 66° (ENE) 22:42:39 437.505
AO-85 30 Apr 22:48:51 22:53:36 67° 240° (WSW) 22:57:53 145.980
UNISAT 6 30 Apr 22:51:20 22:55:11 30° 96° (E) 22:58:57 437.425
HUMSAT D 30 Apr 22:54:16 22:58:24 51° 260° (W) 23:02:30 437.325/437.525
CUBEBUG 1 30 Apr 22:57:46 23:01:14 23° 67° (ENE) 23:04:44 437.445
TIGRISAT 30 Apr 23:09:28 23:13:39 45° 99° (E) 23:17:44 435.000
Cosmos 2504 30 Apr 23:09:46 23:14:01 16° 297° (WNW) 23:18:14 435.465 / 435.565
ZACube-1 30 Apr 23:10:07 23:11:21 11° 271° (W) 23:12:34 437.345
VELOX 1 30 Apr 23:18:07 23:22:14 39° 71° (ENE) 23:26:23 145.980
DX 1 30 Apr 23:23:06 23:27:10 40° 71° (ENE) 23:31:17 434.975-435.025
ANTELSAT 30 Apr 23:33:18 23:37:41 89° 104° (ESE) 23:41:57 437.575/2403.000
UKube-1 30 Apr 23:33:51 23:37:56 43° 71° (ENE) 23:42:02 .
AISAT 30 Apr 23:49:30 23:53:56 89° 242° (WSW) 23:58:27 437.250
GONETS M04 30 Apr 23:51:00 23:57:40 25° 80° (E) 00:04:20
QB50P2 30 Apr 23:56:14 00:00:02 31° 97° (E) 00:03:48 145.880/145.840
POLYITAN 1 30 Apr 23:58:21 00:02:10 32° 97° (E) 00:05:57 437.675
ESTCUBE 1 30 Apr 23:58:57 00:03:20 54° 260° (W) 00:07:45 437.505/2401.250
DUCHIFAT 1 30 Apr 23:59:11 00:02:53 29° 96° (E) 00:06:32 145.980
POPSAT HIP 1 01 May 00:01:32 00:05:25 33° 97° (E) 00:09:15 437.405
RS-15 01 May 00:04:46 00:15:46 52° 315° (NW) 00:27:26 29.354- 29.394
QB50P1 01 May 00:04:56 00:08:54 37° 98° (E) 00:12:49 145.935-145.965
SPROUT 01 May 00:07:54 00:12:04 49° 73° (ENE) 00:16:15 437.525
50 SAT 01 May 00:10:46 00:14:12 38° 261° (W) 00:17:39 437.505
O/OREOS (USA 219) 01 May 00:19:27 00:22:38 18° 55° (NE) 00:25:46 437.305
UNISAT 6 01 May 00:28:16 00:31:46 24° 293° (WNW) 00:35:11 437.425
CUBEBUG 1 01 May 00:33:27 00:37:22 32° 263° (W) 00:41:19 437.445
PCSat 01 May 00:34:34 00:39:08 26° 48° (NE) 00:43:40 145.827
NANOSAT C BR1 01 May 00:40:52 00:45:08 87° 284° (WNW) 00:49:20 145.865
AIST 1 01 May 00:42:30 00:46:34 43° 93° (E) 00:50:42
JAS-2 01 May 00:45:52 00:51:35 22° 89° (E) 00:57:17 435.910
TIGRISAT 01 May 00:47:12 00:49:58 17° 296° (WNW) 00:52:41 435.000
BUGSAT 1 01 May 00:50:20 00:54:28 53° 100° (E) 00:58:32 437.445
TISAT 1 01 May 00:50:28 00:54:30 44° 72° (ENE) 00:58:34 437.305
VELOX 1 01 May 00:55:42 00:58:51 19° 267° (W) 01:02:02 145.980
DX 1 01 May 01:00:31 01:03:32 18° 267° (W) 01:06:33 434.975-435.025
UKube-1 01 May 01:11:24 01:14:10 17° 267° (W) 01:16:59 .
ITUPSAT 1 01 May 01:16:16 01:19:24 18° 63° (ENE) 01:22:33 437.325
Cosmos 2499 01 May 01:25:36 01:32:21 49° 91° (E) 01:39:06 435.465 / 435.565
SWISSCUBE 01 May 01:26:07 01:29:55 24° 66° (ENE) 01:33:44 437.505
QB50P2 01 May 01:32:22 01:35:40 22° 293° (WNW) 01:38:57 145.880/145.840
